Regional Weather Roundup
Issued by NWS San Angelo, TX

Home | Current Version | Previous Version | Text Only | Print | Product List | Glossary On
Versions: 1 2 3 4 5 6 7 8 9 10 11 12 13 14 15 16 17 18 19 20 21 22 23 24 25 26 27 28 29 30 31 32 33 34 35 36 37 38 39 40 41 42 43 44 45 46 47 48 49 50
000
ASUS44 KSJT 200902
RWRSJT
WEST CENTRAL TEXAS REGIONAL WEATHER ROUNDUP
NATIONAL WEATHER SERVICE SAN ANGELO TX
400 AM CDT WED AUG 20 2014

NOTE: "FAIR" INDICATES FEW OR NO CLOUDS BELOW 12,000 FEET WITH NO
SIGNIFICANT WEATHER AND/OR OBSTRUCTIONS TO VISIBILITY.

TXZ049-054-064>066-071>073-076>078-098-099-113-114-127-128-139-140-
154-155-168>170-201000
...LOCATIONS ACROSS WEST CENTRAL TEXAS...

CITY           SKY/WX    TMP DP  RH WIND       PRES   REMARKS
SAN ANGELO     CLEAR     76  69  79 S10       29.89S
ABILENE        CLEAR     78  67  68 S14       29.89S
DYESS AFB      NOT AVBL
JUNCTION       CLEAR     76  68  76 S10       29.92R
SWEETWATER     CLEAR     76  67  73 S16       29.93S
BROWNWOOD      MOCLDY    77  63  61 S13G18    29.91S
COLEMAN        SUNNY     76  66  72 S10       29.92R
SONORA         CLEAR     77  68  73 S10       29.96S
OZONA          FAIR      75  64  69 S10G18    29.94S
BRADY          PTCLDY    75  66  73 SE10      29.93R
$$

TEXAS PANHANDLE/OKLAHOMA PANHANDLE

CITY           SKY/WX    TMP DP  RH WIND       PRES   REMARKS
AMARILLO       CLEAR     72  64  76 S14       29.92S
BORGER         CLEAR     75  63  66 S15       29.88S
CANADIAN       CLEAR     76  66  70 S13G18    29.85S
DALHART        PTCLDY    72  61  68 S12       29.92S
DUMAS          SUNNY     69  61  75 S9        29.91S
GUYMON         NOT AVBL
HEREFORD       SUNNY     72  66  82 S8        29.93S
PAMPA          SUNNY     71  62  75 S13       29.91S
PERRYTON       CLEAR     73  63  71 S10       29.88S
$$

SOUTHERN PANHANDLE/SOUTH PLAINS/ROLLING PLAINS

CITY           SKY/WX    TMP DP  RH WIND       PRES   REMARKS
LUBBOCK        PTCLDY    74  61  63 S14G23    29.92S
SNYDER         CLEAR     73  65  77 S6        29.91S
CHILDRESS      CLEAR     77  63  61 S10       29.87S
SEMINOLE       SUNNY     73  63  70 S5        29.93S
$$

PERMIAN BASIN

CITY           SKY/WX    TMP DP  RH WIND       PRES   REMARKS
MIDLAND        CLEAR     74  64  71 SE8       29.90S
ODESSA         CLEAR     76  64  66 S9        29.91S
WINK           PTCLDY    78  65  63 SE8       29.87S
$$

FAR WEST/SOUTHWEST MOUNTAINS/TRANS PECOS

CITY           SKY/WX    TMP DP  RH WIND       PRES   REMARKS
ALPINE         CLOUDY    71  61  70 SW9       30.06S
DRYDEN           N/A     81  68  64 E6        29.87S
EL PASO        PTCLDY    71  57  61 SW12      29.96R
FORT STOCKTON  PTCLDY    75  65  70 S10       29.90F
GUADALUPE PASS PTCLDY    64  58  80 SW18      30.06S
MARFA          CLOUDY    66  63  88 SW3       30.06F
PECOS          NOT AVBL
$$

DALLAS/FORT WORTH METROPLEX

CITY           SKY/WX    TMP DP  RH WIND       PRES   REMARKS
DFW AIRPORT    CLOUDY    81  70  69 S16       29.89S
FTW MEACHAM    CLOUDY    80  70  71 S12       29.89R
DAL-EXECUTIVE  CLOUDY    80  70  71 S8G18     29.89F
GRAND PRAIRIE  CLOUDY    79  69  70 SE10      29.91R
ADDISON        CLOUDY    82  67  61 S9        29.92R
MESQUITE       CLOUDY    78  71  78 S8        29.91S
LANCASTER      CLOUDY    78  70  76 S6        29.91F
$$

NORTH CENTRAL TEXAS

CITY           SKY/WX    TMP DP  RH WIND       PRES   REMARKS
SHRMAN/DENISON LGT RAIN  78  70  76 S13       29.91R
GAINESVILLE    MOCLDY    78  70  75 SE8       29.92R
BRIDGEPORT     CLOUDY    79  66  65 S9        29.90S
DENTON         CLOUDY    80  70  71 S10       29.89R
WAXAHACHIE     CLOUDY    77  69  77 S7        29.92S
GRANBURY       CLOUDY    82  70  67 SE6       29.90S
$$

WESTERN NORTH TEXAS

CITY           SKY/WX    TMP DP  RH WIND       PRES   REMARKS
WICHITA FALLS  CLEAR     79  65  62 S14       29.86R
VERNON         MOSUNNY   78  61  56 S3        29.86S
BRECKENRIDGE   SUNNY     81  64  57 S8G17     29.88R
COMANCHE       PTCLDY    77  64  63 S12G17    29.91S
$$

CENTRAL AND SOUTH CENTRAL TEXAS

CITY           SKY/WX    TMP DP  RH WIND       PRES   REMARKS
AUSTIN/BERGSTM MOCLDY    78  74  87 S10       29.92R
WACO           MOCLDY    79  70  74 S12       29.91R
HILLSBORO      CLOUDY    79  69  71 S15       29.91S HAZE
TEMPLE         MOCLDY    79  68  69 S15       29.91S
KILLEEN-GRAY   MOCLDY    79  72  78 S16       29.92R
FORT HOOD      MOCLDY    81  71  71 SE10      29.91S
GEORGETOWN     PTCLDY    79  73  83 S8        29.93S
LAGO VISTA     FAIR      77  71  83 S9        29.95S
SAN MARCOS     PTCLDY    79  70  73 S9        29.94S
NEW BRAUNFELS  PTCLDY    77  73  87 S8        29.91S
RANDOLPH AFB   CLOUDY    79  74  84 S13       29.92F
SAN ANTONIO    MOCLDY    80  74  81 SE15      29.92F
STINSON        CLOUDY    80  75  84 SE12      29.90S
PLEASANTON     NOT AVBL
LA GRANGE      CLOUDY    81  77  88 S6        29.91R
GIDDINGS       NOT AVBL
$$

EAST TEXAS

CITY           SKY/WX    TMP DP  RH WIND       PRES   REMARKS
PARIS          PTCLDY    72  63  73 SE5       29.93S
CLARKSVILLE    SUNNY     72  69  91 SE6       29.93R
TYLER          CLOUDY    75  72  90 S6        29.93S
LONGVIEW       PTCLDY    73  69  87 S5        29.94R
PALESTINE      CLOUDY    75  74  95 S5        29.95R
NACOGDOCHES    MOCLDY    73  70  88 S3        29.96S
$$

TEXAS HILL COUNTRY AND EDWARDS PLATEAU

CITY           SKY/WX    TMP DP  RH WIND       PRES   REMARKS
LLANO          SUNNY     77  68  73 S7        29.96R
HORSESHOE BAY  FAIR      76  68  76 S7        29.93R
KERRVILLE      NOT AVBL
FREDERICKSBRG  MOCLDY    73  67  84 SE5       29.96R
ROCKSPRINGS    NOT AVBL
HONDO          CLEAR     76  73  91 SE9       29.93S
UVALDE         MOSUNNY   78  74  87 SE7       29.91S
DEL RIO        CLEAR     83  63  50 E9        29.84S
$$

SOUTHEAST TEXAS

CITY           SKY/WX    TMP DP  RH WIND       PRES   REMARKS
COLLEGE STN    CLOUDY    78  75  90 SE8       29.92F
CALDWELL       NOT AVBL
CROCKETT       NOT AVBL
BRENHAM        CLOUDY    80  76  89 S6        29.93S
HUNTSVILLE     PTCLDY    76  73  91 S3        29.94S
CONROE         PTCLDY    72  71  97 CALM      29.95S FOG
HOUSTON BUSH   PTCLDY    75  74  96 SE3       29.94S
HOUSTON HOBBY  PTCLDY    78  74  87 CALM      29.93S
PERLAND        PTCLDY    77  73  87 CALM      29.95S
WHARTON        PTSUNNY   75  73  93 SE3       29.93S
$$

THE UPPER TEXAS COAST

CITY           SKY/WX    TMP DP  RH WIND       PRES   REMARKS
ORANGE         SUNNY     78  78 100 CALM      29.96S FOG
PORT ARTHUR    CLEAR     78  74  87 S6        29.94S
GALVESTON      PTCLDY    84  77  79 S15       29.94F
ANGLETON       PTCLDY    78  76  93 S6        29.93S
BAY CITY       PTSUNNY   82  82 100 SE6       29.93R
$$

TEXAS COASTAL BEND, RIO GRANDE PLAINS DEEP SOUTH TEXAS

CITY           SKY/WX    TMP DP  RH WIND       PRES   REMARKS
VICTORIA       CLEAR     80  76  87 SE9       29.91F
BEEVILLE       FAIR      78  77  96 SE5       29.90S
ROCKPORT       CLEAR     83  77  82 S8        29.90R
PORT ARANSAS   SUNNY     82  78  88 SE8       29.90S
PORT LAVACA    MOSUNNY   80  77  90 SE7       29.91S
CORPUS CHRISTI PTCLDY    80  77  90 SE7       29.89F
KINGSVILLE NAS CLEAR     81  78  91 SE9       29.88F
COTULLA        CLEAR     80  73  79 SE14      29.88F
LAREDO         CLEAR     81  73  76 SE14      29.88S
BROWNSVILLE    CLEAR     79  77  94 SE5       29.89S
PORT ISABEL    CLEAR     82  76  81 SE7       29.89S
HEBBRONVILLE   NOT AVBL
MCALLEN        CLEAR     81  76  84 SE12      29.87F
WESLACO        CLEAR     80  73  81 SE6       29.88R
FALFURRIAS     SUNNY     84  70  62 SE8       29.88S
EDINBURG       SUNNY     80  74  83 E6        29.88S
$$


USA.gov is the U.S. government's official web portal to all federal, state and local government web resources and services.